10-09-2023, 00:00:08,    295,    0.0,   19.1,   0.00,   0.00, 1014.0,    0.3, -999.0
10-09-2023, 00:00:18,    295,    0.0,   19.1,   0.00,   0.00, 1014.0,    0.3, -999.0
10-09-2023, 00:00:28,    295,    0.0,   19.1,   0.00,   0.00, 1014.0,    0.1, -999.0
10-09-2023, 00:00:38,    295,    0.0,   19.1,   0.00,   0.00, 1014.0,    0.5, -999.0
10-09-2023, 00:00:48,    295,    0.0,   19.1,   0.00,   0.00, 1014.0,    0.4, -999.0
10-09-2023, 00:00:58,    295,    0.0,   19.1,   0.00,   0.00, 1014.0,    0.6, -999.0
10-09-2023, 00:01:08,    295,    0.0,   19.1,   0.00,   0.00, 1014.0,    0.5, -999.0
10-09-2023, 00:01:18,    295,    0.0,   19.1,   0.00,   0.00, 1014.0,    0.0, -999.0
10-09-2023, 00:01:28,    295,    0.0,   19.0,   0.00,   0.00, 1014.0,    0.3, -999.0
10-09-2023, 00:01:38,    295,    0.0,   19.0,   0.00,   0.00, 1014.0,    0.2, -999.0
10-09-2023, 00:01:48,    295,    0.0,   19.1,   0.00,   0.00, 1014.0,    0.1, -999.0
10-09-2023, 00:01:57,    293,    0.0,   19.0,   0.00,   0.00, 1014.0,    0.6, -999.0
10-09-2023, 00:02:08,    295,    0.0,   19.0,   0.00,   0.00, 1014.0,    0.1, -999.0
10-09-2023, 00:02:18,    295,    0.0,   19.0,   0.00,   0.00, 1014.0,    0.3, -999.0
10-09-2023, 00:02:27,    295,    0.0,   19.1,   0.00,   0.00, 1014.0,    0.0, -999.0
10-09-2023, 00:02:37,    295,    0.0,   19.1,   0.00,   0.00, 1014.0,    0.5, -999.0
10-09-2023, 00:02:48,    295,    0.0,   19.0,   0.00,   0.00, 1014.0,    0.1, -999.0
10-09-2023, 00:02:58,    295,    0.0,   19.0,   0.00,   0.00, 1014.0,    0.1, -999.0
10-09-2023, 00:03:07,    295,    0.0,   19.0,   0.00,   0.00, 1014.0,    0.2, -999.0
10-09-2023, 00:03:17,    294,    0.0,   19.0,   0.00,   0.00, 1014.0,    0.4, -999.0
10-09-2023, 00:03:28,    295,    0.0,   19.0,   0.00,   0.00, 1014.0,    0.3, -999.0
10-09-2023, 00:03:37,    295,    0.0,   19.0,   0.00,   0.00, 1014.0,    0.2, -999.0
10-09-2023, 00:03:47,    295,    0.0,   19.1,   0.00,   0.00, 1014.1,    0.2, -999.0
10-09-2023, 00:03:58,    295,    0.0,   19.1,   0.00,   0.00, 1014.0,    0.2, -999.0
10-09-2023, 00:04:07,    295,    0.0,   19.0,   0.00,   0.00, 1014.0,    0.4, -999.0
10-09-2023, 00:04:17,    295,    0.0,   18.9,   0.00,   0.00, 1014.0,    0.3, -999.0
10-09-2023, 00:04:27,    295,    0.0,   19.0,   0.00,   0.00, 1014.0,    0.2, -999.0
10-09-2023, 00:04:37,    294,    0.0,   18.9,   0.00,   0.00, 1014.0,    0.4, -999.0
10-09-2023, 00:04:47,    295,    0.0,   19.0,   0.00,   0.00, 1014.1,    0.2, -999.0
10-09-2023, 00:04:57,    295,    0.0,   19.0,   0.00,   0.00, 1014.0,    0.2, -999.0
10-09-2023, 00:05:07,    295,    0.0,   19.0,   0.00,   0.00, 1014.0,    0.1, -999.0
10-09-2023, 00:05:17,    295,    0.0,   19.0,   0.00,   0.00, 1014.0,    0.4, -999.0
10-09-2023, 00:05:27,    295,    0.0,   19.0,   0.00,   0.00, 1014.0,    0.1, -999.0
10-09-2023, 00:05:37,    295,    0.0,   19.0,   0.00,   0.00, 1014.0,    0.3, -999.0
10-09-2023, 00:05:47,    294,    0.0,   19.0,   0.00,   0.00, 1014.0,    0.2, -999.0
10-09-2023, 00:05:57,    295,    0.0,   19.0,   0.00,   0.00, 1014.0,    0.2, -999.0
10-09-2023, 00:06:07,    294,    0.0,   19.0,   0.00,   0.00, 1014.0,    0.2, -999.0
10-09-2023, 00:06:17,    295,    0.0,   19.0,   0.00,   0.00, 1014.0,    0.2, -999.0
10-09-2023, 00:06:27,    295,    0.0,   18.9,   0.00,   0.00, 1014.0,    0.3, -999.0
10-09-2023, 00:06:37,    295,    0.0,   18.9,   0.00,   0.00, 1014.0,    0.2, -999.0
10-09-2023, 00:06:47,    295,    0.0,   19.0,   0.00,   0.00, 1014.0,    0.2, -999.0
10-09-2023, 00:06:57,    295,    0.0,   18.9,   0.00,   0.00, 1014.0,    0.2, -999.0
10-09-2023, 00:07:07,    295,    0.0,   18.9,   0.00,   0.00, 1014.0,    0.3, -999.0
10-09-2023, 00:07:17,    295,    0.0,   18.8,   0.00,   0.00, 1014.0,    0.1, -999.0
10-09-2023, 00:07:27,    295,    0.0,   18.9,   0.00,   0.00, 1014.0,    0.2, -999.0
10-09-2023, 00:07:37,    295,    0.0,   18.9,   0.00,   0.00, 1014.0,    0.2, -999.0
10-09-2023, 00:07:46,    295,    0.0,   18.9,   0.00,   0.00, 1014.0,    0.1, -999.0
10-09-2023, 00:07:57,    295,    0.0,   18.9,   0.00,   0.00, 1014.0,    0.3, -999.0
10-09-2023, 00:08:07,    295,    0.0,   18.9,   0.00,   0.00, 1014.0,    0.1, -999.0
10-09-2023, 00:08:16,    295,    0.0,   18.9,   0.00,   0.00, 1014.0,    0.2, -999.0
10-09-2023, 00:08:26,    295,    0.0,   18.9,   0.00,   0.00, 1013.9,    0.2, -999.0
10-09-2023, 00:08:37,    295,    0.0,   18.9,   0.00,   0.00, 1013.9,    0.2, -999.0
10-09-2023, 00:08:46,    295,    0.0,   18.8,   0.00,   0.00, 1013.9,    0.2, -999.0
10-09-2023, 00:08:56,    294,    0.0,   18.9,   0.00,   0.00, 1014.0,    0.1, -999.0
10-09-2023, 00:09:07,    295,    0.0,   18.9,   0.00,   0.00, 1014.0,    0.4, -999.0
10-09-2023, 00:09:16,    295,    0.0,   18.8,   0.00,   0.00, 1014.0,    0.1, -999.0
10-09-2023, 00:09:26,    295,    0.0,   18.8,   0.00,   0.00, 1013.9,    0.2, -999.0
10-09-2023, 00:09:36,    295,    0.0,   18.8,   0.00,   0.00, 1014.0,    0.2, -999.0
10-09-2023, 00:09:46,    295,    0.0,   18.8,   0.00,   0.00, 1014.0,    0.2, -999.0
10-09-2023, 00:09:56,    295,    0.0,   18.8,   0.00,   0.00, 1014.0,    0.2, -999.0
10-09-2023, 00:10:06,    294,    0.0,   18.8,   0.00,   0.00, 1014.0,    0.3, -999.0
10-09-2023, 00:10:16,    295,    0.0,   18.8,   0.00,   0.00, 1014.0,    0.3, -999.0
10-09-2023, 00:10:26,    295,    0.0,   18.8,   0.00,   0.00, 1014.0,    0.1, -999.0
10-09-2023, 00:10:36,    295,    0.0,   18.8,   0.00,   0.00, 1014.0,    0.1, -999.0
10-09-2023, 00:10:46,    294,    0.0,   18.8,   0.00,   0.00, 1014.0,    0.3, -999.0
10-09-2023, 00:10:56,    295,    0.0,   18.8,   0.00,   0.00, 1014.0,    0.3, -999.0
10-09-2023, 00:11:06,    295,    0.0,   18.8,   0.00,   0.00, 1014.0,    0.2, -999.0
10-09-2023, 00:11:16,    295,    0.0,   18.8,   0.00,   0.00, 1013.9,    0.3, -999.0
10-09-2023, 00:11:26,    295,    0.0,   18.8,   0.00,   0.00, 1013.9,    0.2, -999.0
10-09-2023, 00:11:36,    295,    0.0,   18.7,   0.00,   0.00, 1014.0,    0.1, -999.0
10-09-2023, 00:11:46,    295,    0.0,   18.8,   0.00,   0.00, 1014.0,    0.2, -999.0
10-09-2023, 00:11:56,    295,    0.0,   18.7,   0.00,   0.00, 1014.0,    0.1, -999.0
10-09-2023, 00:12:06,    295,    0.0,   18.8,   0.00,   0.00, 1014.0,    0.3, -999.0
10-09-2023, 00:12:16,    295,    0.0,   18.8,   0.00,   0.00, 1013.9,    0.1, -999.0
10-09-2023, 00:12:26,    295,    0.0,   18.8,   0.00,   0.00, 1013.9,    0.3, -999.0
10-09-2023, 00:12:36,    295,    0.0,   18.8,   0.00,   0.00, 1013.9,    0.2, -999.0
10-09-2023, 00:12:46,    295,    0.0,   18.8,   0.00,   0.00, 1014.0,    0.3, -999.0
10-09-2023, 00:12:55,    294,    0.0,   18.8,   0.00,   0.00, 1014.0,    0.3, -999.0
10-09-2023, 00:13:06,    295,    0.0,   18.8,   0.00,   0.00, 1013.9,    0.2, -999.0
10-09-2023, 00:13:16,    295,    0.0,   18.7,   0.00,   0.00, 1013.9,    0.1, -999.0
10-09-2023, 00:13:25,    295,    0.0,   18.8,   0.00,   0.00, 1013.9,    0.2, -999.0
10-09-2023, 00:13:35,    295,    0.0,   18.8,   0.00,   0.00, 1013.9,    0.2, -999.0
10-09-2023, 00:13:46,    295,    0.0,   18.8,   0.00,   0.00, 1013.9,    0.3, -999.0
10-09-2023, 00:13:55,    295,    0.0,   18.8,   0.00,   0.00, 1013.9,    0.3, -999.0
10-09-2023, 00:14:05,    295,    0.0,   18.8,   0.00,   0.00, 1013.9,    0.2, -999.0
10-09-2023, 00:14:15,    295,    0.0,   18.7,   0.00,   0.00, 1013.9,    0.2, -999.0
10-09-2023, 00:14:25,    294,    0.0,   18.7,   0.00,   0.00, 1013.9,    0.2, -999.0
10-09-2023, 00:14:35,    295,    0.0,   18.9,   0.00,   0.00, 1013.9,    0.2, -999.0
10-09-2023, 00:14:45,    295,    0.0,   18.8,   0.00,   0.00, 1013.9,    0.3, -999.0
10-09-2023, 00:14:55,    295,    0.0,   18.8,   0.00,   0.00, 1013.9,    0.1, -999.0
10-09-2023, 00:15:05,    295,    0.0,   18.8,   0.00,   0.00, 1013.9,    0.2, -999.0
10-09-2023, 00:15:15,    295,    0.0,   18.8,   0.00,   0.00, 1013.9,    0.2, -999.0
10-09-2023, 00:15:25,    295,    0.0,   18.8,   0.00,   0.00, 1013.9,    0.1, -999.0
10-09-2023, 00:15:35,    295,    0.0,   18.9,   0.00,   0.00, 1013.9,    0.2, -999.0
10-09-2023, 00:15:45,    295,    0.0,   18.9,   0.00,   0.00, 1013.9,    0.2, -999.0
10-09-2023, 00:15:55,    295,    0.0,   18.9,   0.00,   0.00, 1013.9,    0.3, -999.0
10-09-2023, 00:16:05,    295,    0.0,   18.9,   0.00,   0.00, 1013.9,    0.2, -999.0
10-09-2023, 00:16:15,    295,    0.0,   18.9,   0.00,   0.00, 1013.9,    0.1, -999.0
10-09-2023, 00:16:25,    295,    0.0,   18.9,   0.00,   0.00, 1013.9,    0.3, -999.0
10-09-2023, 00:16:35,    295,    0.0,   18.9,   0.00,   0.00, 1013.9,    0.3, -999.0
10-09-2023, 00:16:45,    295,    0.0,   18.9,   0.00,   0.00, 1013.9,    0.2, -999.0
10-09-2023, 00:16:55,    295,    0.0,   18.9,   0.00,   0.00, 1013.9,    0.2, -999.0
10-09-2023, 00:17:05,    295,    0.0,   18.8,   0.00,   0.00, 1013.9,    0.2, -999.0
10-09-2023, 00:17:15,    294,    0.0,   18.9,   0.00,   0.00, 1013.9,    0.4, -999.0
10-09-2023, 00:17:25,    295,    0.0,   18.9,   0.00,   0.00, 1013.9,    0.3, -999.0
10-09-2023, 00:17:35,    295,    0.0,   18.9,   0.00,   0.00, 1013.9,    0.4, -999.0
10-09-2023, 00:17:45,    295,    0.0,   18.9,   0.00,   0.00, 1013.9,    0.4, -999.0
10-09-2023, 00:17:55,    294,    0.0,   18.9,   0.00,   0.00, 1013.9,    0.1, -999.0
10-09-2023, 00:18:04,    295,    0.0,   18.9,   0.00,   0.00, 1013.9,    0.2, -999.0
10-09-2023, 00:18:15,    295,    0.0,   18.8,   0.00,   0.00, 1013.9,    0.1, -999.0
10-09-2023, 00:18:25,    295,    0.0,   18.8,   0.00,   0.00, 1013.9,    0.2, -999.0
10-09-2023, 00:18:34,    295,    0.0,   18.8,   0.00,   0.00, 1013.9,    0.3, -999.0
10-09-2023, 00:18:44,    295,    0.0,   18.9,   0.00,   0.00, 1013.9,    0.3, -999.0
10-09-2023, 00:18:55,    295,    0.0,   18.8,   0.00,   0.00, 1013.9,    0.2, -999.0
10-09-2023, 00:19:05,    295,    0.0,   18.8,   0.00,   0.00, 1013.9,    0.3, -999.0
10-09-2023, 00:19:14,    295,    0.0,   18.9,   0.00,   0.00, 1013.9,    0.3, -999.0
10-09-2023, 00:19:24,    295,    0.0,   18.8,   0.00,   0.00, 1013.9,    0.2, -999.0
10-09-2023, 00:19:35,    294,    0.0,   18.8,   0.00,   0.00, 1013.9,    0.2, -999.0
10-09-2023, 00:19:44,    295,    0.0,   18.9,   0.00,   0.00, 1013.9,    0.3, -999.0
10-09-2023, 00:19:54,    295,    0.0,   18.8,   0.00,   0.00, 1013.9,    0.3, -999.0
10-09-2023, 00:20:04,    295,    0.0,   18.8,   0.00,   0.00, 1013.9,    0.2, -999.0
10-09-2023, 00:20:14,    294,    0.0,   18.8,   0.00,   0.00, 1013.9,    0.1, -999.0
10-09-2023, 00:20:24,    295,    0.0,   18.8,   0.00,   0.00, 1013.9,    0.3, -999.0
10-09-2023, 00:20:34,    295,    0.0,   18.7,   0.00,   0.00, 1013.9,    0.2, -999.0
10-09-2023, 00:20:44,    295,    0.0,   18.8,   0.00,   0.00, 1013.9,    0.2, -999.0
10-09-2023, 00:20:54,    295,    0.0,   18.8,   0.00,   0.00, 1013.9,    0.2, -999.0
10-09-2023, 00:21:04,    294,    0.0,   18.8,   0.00,   0.00, 1013.9,    0.2, -999.0
10-09-2023, 00:21:14,    295,    0.0,   18.7,   0.00,   0.00, 1013.9,    0.3, -999.0
10-09-2023, 00:21:24,    295,    0.0,   18.8,   0.00,   0.00, 1013.8,    0.2, -999.0
10-09-2023, 00:21:34,    295,    0.0,   18.7,   0.00,   0.00, 1013.9,    0.2, -999.0
10-09-2023, 00:21:44,    295,    0.0,   18.7,   0.00,   0.00, 1013.8,    0.2, -999.0
10-09-2023, 00:21:54,    295,    0.0,   18.7,   0.00,   0.00, 1013.8,    0.3, -999.0
10-09-2023, 00:22:04,    295,    0.0,   18.7,   0.00,   0.00, 1013.8,    0.3, -999.0
10-09-2023, 00:22:14,    295,    0.0,   18.7,   0.00,   0.00, 1013.8,    0.1, -999.0
10-09-2023, 00:22:24,    295,    0.0,   18.8,   0.00,   0.00, 1013.8,    0.3, -999.0
10-09-2023, 00:22:34,    295,    0.0,   18.7,   0.00,   0.00, 1013.8,    0.3, -999.0
10-09-2023, 00:22:43,    295,    0.0,   18.7,   0.00,   0.00, 1013.8,    0.2, -999.0
10-09-2023, 00:22:54,    295,    0.0,   18.7,   0.00,   0.00, 1013.8,    0.2, -999.0
10-09-2023, 00:23:04,    295,    0.0,   18.7,   0.00,   0.00, 1013.9,    0.4, -999.0
10-09-2023, 00:23:14,    295,    0.0,   18.7,   0.00,   0.00, 1013.8,    0.1, -999.0
10-09-2023, 00:23:23,    295,    0.0,   18.7,   0.00,   0.00, 1013.8,    0.2, -999.0
10-09-2023, 00:23:34,    295,    0.0,   18.7,   0.00,   0.00, 1013.8,    0.1, -999.0
10-09-2023, 00:23:44,    295,    0.0,   18.7,   0.00,   0.00, 1013.8,    0.2, -999.0
10-09-2023, 00:23:53,    294,    0.0,   18.7,   0.00,   0.00, 1013.8,    0.1, -999.0
10-09-2023, 00:24:03,    295,    0.0,   18.7,   0.00,   0.00, 1013.8,    0.4, -999.0
10-09-2023, 00:24:14,    295,    0.0,   18.7,   0.00,   0.00, 1013.8,    0.2, -999.0
10-09-2023, 00:24:23,    295,    0.0,   18.7,   0.00,   0.00, 1013.8,    0.1, -999.0
10-09-2023, 00:24:33,    295,    0.0,   18.7,   0.00,   0.00, 1013.8,    0.3, -999.0
10-09-2023, 00:24:43,    295,    0.0,   18.7,   0.00,   0.00, 1013.8,    0.3, -999.0
10-09-2023, 00:24:53,    295,    0.0,   18.6,   0.00,   0.00, 1013.8,    0.1, -999.0
10-09-2023, 00:25:03,    295,    0.0,   18.7,   0.00,   0.00, 1013.8,    0.2, -999.0
10-09-2023, 00:25:13,    295,    0.0,   18.7,   0.00,   0.00, 1013.8,    0.2, -999.0
10-09-2023, 00:25:23,    295,    0.0,   18.6,   0.00,   0.00, 1013.8,    0.3, -999.0
10-09-2023, 00:25:33,    295,    0.0,   18.6,   0.00,   0.00, 1013.8,    0.2, -999.0
10-09-2023, 00:25:43,    294,    0.0,   18.6,   0.00,   0.00, 1013.8,    0.0, -999.0
10-09-2023, 00:25:53,    295,    0.0,   18.6,   0.00,   0.00, 1013.8,    0.2, -999.0
10-09-2023, 00:26:03,    295,    0.0,   18.6,   0.00,   0.00, 1013.8,    0.2, -999.0
10-09-2023, 00:26:13,    295,    0.0,   18.6,   0.00,   0.00, 1013.8,    0.1, -999.0
10-09-2023, 00:26:23,    295,    0.0,   18.6,   0.00,   0.00, 1013.8,    0.2, -999.0
10-09-2023, 00:26:33,    295,    0.0,   18.6,   0.00,   0.00, 1013.8,    0.2, -999.0
10-09-2023, 00:26:43,    295,    0.0,   18.6,   0.00,   0.00, 1013.8,    0.2, -999.0
10-09-2023, 00:26:53,    295,    0.0,   18.5,   0.00,   0.00, 1013.8,    0.1, -999.0
10-09-2023, 00:27:03,    295,    0.0,   18.5,   0.00,   0.00, 1013.8,    0.1, -999.0
10-09-2023, 00:27:13,    295,    0.0,   18.6,   0.00,   0.00, 1013.8,    0.2, -999.0
10-09-2023, 00:27:23,    295,    0.0,   18.6,   0.00,   0.00, 1013.8,    0.2, -999.0
10-09-2023, 00:27:33,    295,    0.0,   18.5,   0.00,   0.00, 1013.8,    0.0, -999.0
10-09-2023, 00:27:43,    295,    0.0,   18.5,   0.00,   0.00, 1013.8,    0.3, -999.0
10-09-2023, 00:27:53,    295,    0.0,   18.6,   0.00,   0.00, 1013.8,    0.2, -999.0
10-09-2023, 00:28:03,    295,    0.0,   18.6,   0.00,   0.00, 1013.8,    0.2, -999.0
10-09-2023, 00:28:13,    295,    0.0,   18.5,   0.00,   0.00, 1013.8,    0.2, -999.0
10-09-2023, 00:28:23,    295,    0.0,   18.5,   0.00,   0.00, 1013.8,    0.1, -999.0
10-09-2023, 00:28:32,    294,    0.0,   18.5,   0.00,   0.00, 1013.8,    0.2, -999.0
10-09-2023, 00:28:43,    295,    0.0,   18.5,   0.00,   0.00, 1013.8,    0.1, -999.0
10-09-2023, 00:28:53,    295,    0.0,   18.5,   0.00,   0.00, 1013.8,    0.3, -999.0
10-09-2023, 00:29:02,    295,    0.0,   18.5,   0.00,   0.00, 1013.8,    0.3, -999.0
10-09-2023, 00:29:12,    295,    0.0,   18.5,   0.00,   0.00, 1013.8,    0.3, -999.0
10-09-2023, 00:29:23,    295,    0.0,   18.5,   0.00,   0.00, 1013.8,    0.2, -999.0
10-09-2023, 00:29:32,    295,    0.0,   18.5,   0.00,   0.00, 1013.8,    0.2, -999.0
10-09-2023, 00:29:42,    294,    0.0,   18.6,   0.00,   0.00, 1013.8,    0.4, -999.0
10-09-2023, 00:29:53,    295,    0.0,   18.5,   0.00,   0.00, 1013.8,    0.3, -999.0
10-09-2023, 00:30:02,    295,    0.0,   18.5,   0.00,   0.00, 1013.8,    0.2, -999.0
10-09-2023, 00:30:12,    294,    0.0,   18.6,   0.00,   0.00, 1013.8,    0.2, -999.0
10-09-2023, 00:30:22,    295,    0.0,   18.5,   0.00,   0.00, 1013.8,    0.2, -999.0
10-09-2023, 00:30:32,    295,    0.0,   18.5,   0.00,   0.00, 1013.8,    0.2, -999.0
10-09-2023, 00:30:42,    295,    0.0,   18.5,   0.00,   0.00, 1013.8,    0.3, -999.0
10-09-2023, 00:30:52,    295,    0.0,   18.4,   0.00,   0.00, 1013.7,    0.2, -999.0
10-09-2023, 00:31:02,    295,    0.0,   18.5,   0.00,   0.00, 1013.7,    0.1, -999.0
10-09-2023, 00:31:12,    295,    0.0,   18.5,   0.00,   0.00, 1013.8,    0.2, -999.0
10-09-2023, 00:31:22,    295,    0.0,   18.5,   0.00,   0.00, 1013.8,    0.1, -999.0
10-09-2023, 00:31:32,    295,    0.0,   18.5,   0.00,   0.00, 1013.7,    0.2, -999.0
10-09-2023, 00:31:42,    295,    0.0,   18.5,   0.00,   0.00, 1013.7,    0.3, -999.0
10-09-2023, 00:31:52,    294,    0.0,   18.5,   0.00,   0.00, 1013.7,    0.3, -999.0
10-09-2023, 00:32:02,    295,    0.0,   18.4,   0.00,   0.00, 1013.7,    0.3, -999.0
10-09-2023, 00:32:12,    295,    0.0,   18.4,   0.00,   0.00, 1013.8,    0.2, -999.0
10-09-2023, 00:32:22,    295,    0.0,   18.5,   0.00,   0.00, 1013.8,    0.2, -999.0
10-09-2023, 00:32:32,    295,    0.0,   18.5,   0.00,   0.00, 1013.7,    0.2, -999.0
10-09-2023, 00:32:42,    295,    0.0,   18.4,   0.00,   0.00, 1013.7,    0.1, -999.0
10-09-2023, 00:32:52,    295,    0.0,   18.4,   0.00,   0.00, 1013.7,    0.1, -999.0
10-09-2023, 00:33:02,    295,    0.0,   18.4,   0.00,   0.00, 1013.8,    0.2, -999.0
10-09-2023, 00:33:12,    295,    0.0,   18.4,   0.00,   0.00, 1013.8,    0.4, -999.0
10-09-2023, 00:33:22,    295,    0.0,   18.5,   0.00,   0.00, 1013.7,    0.2, -999.0
10-09-2023, 00:33:32,    295,    0.0,   18.4,   0.00,   0.00, 1013.8,    0.1, -999.0
10-09-2023, 00:33:41,    294,    0.0,   18.5,   0.00,   0.00, 1013.8,    0.4, -999.0
10-09-2023, 00:33:52,    295,    0.0,   18.5,   0.00,   0.00, 1013.7,    0.2, -999.0
10-09-2023, 00:34:02,    295,    0.0,   18.4,   0.00,   0.00, 1013.7,    0.3, -999.0
10-09-2023, 00:34:11,    295,    0.0,   18.4,   0.00,   0.00, 1013.7,    0.2, -999.0
10-09-2023, 00:34:21,    295,    0.0,   18.5,   0.00,   0.00, 1013.7,    0.2, -999.0
10-09-2023, 00:34:32,    295,    0.0,   18.4,   0.00,   0.00, 1013.7,    0.2, -999.0
10-09-2023, 00:34:41,    295,    0.0,   18.5,   0.00,   0.00, 1013.7,    0.3, -999.0
10-09-2023, 00:34:51,    295,    0.0,   18.4,   0.00,   0.00, 1013.7,    0.2, -999.0
10-09-2023, 00:35:01,    295,    0.0,   18.4,   0.00,   0.00, 1013.7,    0.3, -999.0
10-09-2023, 00:35:12,    295,    0.0,   18.4,   0.00,   0.00, 1013.7,    0.3, -999.0
10-09-2023, 00:35:21,    295,    0.0,   18.4,   0.00,   0.00, 1013.7,    0.3, -999.0
10-09-2023, 00:35:31,    295,    0.0,   18.4,   0.00,   0.00, 1013.7,    0.1, -999.0
10-09-2023, 00:35:41,    295,    0.0,   18.4,   0.00,   0.00, 1013.7,    0.2, -999.0
10-09-2023, 00:35:51,    295,    0.0,   18.5,   0.00,   0.00, 1013.7,    0.1, -999.0
10-09-2023, 00:36:01,    295,    0.0,   18.4,   0.00,   0.00, 1013.7,    0.3, -999.0
10-09-2023, 00:36:11,    295,    0.0,   18.4,   0.00,   0.00, 1013.8,    0.2, -999.0
10-09-2023, 00:36:21,    295,    0.0,   18.4,   0.00,   0.00, 1013.7,    0.3, -999.0
10-09-2023, 00:36:31,    295,    0.0,   18.4,   0.00,   0.00, 1013.8,    0.3, -999.0
10-09-2023, 00:36:41,    295,    0.0,   18.4,   0.00,   0.00, 1013.8,    0.4, -999.0
10-09-2023, 00:36:51,    295,    0.0,   18.4,   0.00,   0.00, 1013.8,    0.3, -999.0
10-09-2023, 00:37:01,    295,    0.0,   18.4,   0.00,   0.00, 1013.7,    0.2, -999.0
10-09-2023, 00:37:11,    295,    0.0,   18.3,   0.00,   0.00, 1013.8,    0.1, -999.0
10-09-2023, 00:37:21,    295,    0.0,   18.4,   0.00,   0.00, 1013.7,    0.2, -999.0
10-09-2023, 00:37:31,    295,    0.0,   18.4,   0.00,   0.00, 1013.7,    0.2, -999.0
10-09-2023, 00:37:41,    294,    0.0,   18.3,   0.00,   0.00, 1013.8,    0.3, -999.0
10-09-2023, 00:37:51,    295,    0.0,   18.3,   0.00,   0.00, 1013.8,    0.2, -999.0
10-09-2023, 00:38:01,    295,    0.0,   18.2,   0.00,   0.00, 1013.8,    0.4, -999.0
10-09-2023, 00:38:11,    295,    0.0,   18.4,   0.00,   0.00, 1013.7,    0.2, -999.0
10-09-2023, 00:38:21,    295,    0.0,   18.3,   0.00,   0.00, 1013.8,    0.2, -999.0
10-09-2023, 00:38:31,    295,    0.0,   18.5,   0.00,   0.00, 1013.7,    0.2, -999.0
10-09-2023, 00:38:41,    295,    0.0,   18.4,   0.00,   0.00, 1013.8,    0.4, -999.0
10-09-2023, 00:38:50,    295,    0.0,   18.4,   0.00,   0.00, 1013.8,    0.2, -999.0
10-09-2023, 00:39:01,    295,    0.0,   18.4,   0.00,   0.00, 1013.8,    0.2, -999.0
10-09-2023, 00:39:11,    295,    0.0,   18.4,   0.00,   0.00, 1013.8,    0.2, -999.0
10-09-2023, 00:39:20,    295,    0.0,   18.4,   0.00,   0.00, 1013.8,    0.3, -999.0
10-09-2023, 00:39:31,    295,    0.0,   18.3,   0.00,   0.00, 1013.8,    0.2, -999.0
10-09-2023, 00:39:41,    295,    0.0,   18.3,   0.00,   0.00, 1013.8,    0.2, -999.0
10-09-2023, 00:39:50,    295,    0.0,   18.3,   0.00,   0.00, 1013.8,    0.3, -999.0
10-09-2023, 00:40:00,    295,    0.0,   18.3,   0.00,   0.00, 1013.8,    0.4, -999.0
10-09-2023, 00:40:11,    295,    0.0,   18.3,   0.00,   0.00, 1013.8,    0.2, -999.0
10-09-2023, 00:40:20,    295,    0.0,   18.4,   0.00,   0.00, 1013.8,    0.1, -999.0
10-09-2023, 00:40:30,    295,    0.0,   18.3,   0.00,   0.00, 1013.8,    0.1, -999.0
10-09-2023, 00:40:40,    295,    0.0,   18.3,   0.00,   0.00, 1013.8,    0.2, -999.0
10-09-2023, 00:40:51,    295,    0.0,   18.3,   0.00,   0.00, 1013.8,    0.3, -999.0
10-09-2023, 00:41:00,    295,    0.0,   18.3,   0.00,   0.00, 1013.8,    0.2, -999.0
10-09-2023, 00:41:10,    294,    0.0,   18.3,   0.00,   0.00, 1013.8,    0.2, -999.0
10-09-2023, 00:41:20,    295,    0.0,   18.4,   0.00,   0.00, 1013.8,    0.0, -999.0
10-09-2023, 00:41:30,    295,    0.0,   18.2,   0.00,   0.00, 1013.8,    0.3, -999.0
10-09-2023, 00:41:40,    295,    0.0,   18.3,   0.00,   0.00, 1013.8,    0.1, -999.0
10-09-2023, 00:41:50,    295,    0.0,   18.3,   0.00,   0.00, 1013.8,    0.2, -999.0
10-09-2023, 00:42:00,    294,    0.0,   18.3,   0.00,   0.00, 1013.7,    0.5, -999.0
10-09-2023, 00:42:10,    295,    0.0,   18.3,   0.00,   0.00, 1013.8,    0.1, -999.0
10-09-2023, 00:42:20,    295,    0.0,   18.3,   0.00,   0.00, 1013.7,    0.3, -999.0
10-09-2023, 00:42:30,    295,    0.0,   18.3,   0.00,   0.00, 1013.8,    0.2, -999.0
10-09-2023, 00:42:40,    295,    0.0,   18.2,   0.00,   0.00, 1013.8,    0.2, -999.0
10-09-2023, 00:42:50,    295,    0.0,   18.3,   0.00,   0.00, 1013.8,    0.2, -999.0
10-09-2023, 00:43:00,    295,    0.0,   18.3,   0.00,   0.00, 1013.8,    0.3, -999.0
10-09-2023, 00:43:10,    295,    0.0,   18.2,   0.00,   0.00, 1013.8,    0.2, -999.0
10-09-2023, 00:43:20,    295,    0.0,   18.2,   0.00,   0.00, 1013.8,    0.2, -999.0
10-09-2023, 00:43:30,    295,    0.0,   18.3,   0.00,   0.00, 1013.8,    0.2, -999.0
10-09-2023, 00:43:40,    294,    0.0,   18.0,   0.00,   0.00, 1013.8,    0.2, -999.0
10-09-2023, 00:43:50,    295,    0.0,   18.2,   0.00,   0.00, 1013.8,    0.1, -999.0
10-09-2023, 00:43:59,    295,    0.0,   18.2,   0.00,   0.00, 1013.8,    0.4, -999.0
10-09-2023, 00:44:10,    295,    0.0,   18.2,   0.00,   0.00, 1013.8,    0.2, -999.0
10-09-2023, 00:44:20,    295,    0.0,   18.3,   0.00,   0.00, 1013.8,    0.2, -999.0
10-09-2023, 00:44:29,    295,    0.0,   18.2,   0.00,   0.00, 1013.8,    0.3, -999.0
10-09-2023, 00:44:39,    295,    0.0,   18.3,   0.00,   0.00, 1013.7,    0.2, -999.0
10-09-2023, 00:44:50,    295,    0.0,   18.2,   0.00,   0.00, 1013.8,    0.1, -999.0
10-09-2023, 00:44:59,    295,    0.0,   18.3,   0.00,   0.00, 1013.8,    0.3, -999.0
10-09-2023, 00:45:09,    295,    0.0,   18.3,   0.00,   0.00, 1013.7,    0.2, -999.0
10-09-2023, 00:45:20,    295,    0.0,   18.3,   0.00,   0.00, 1013.8,    0.1, -999.0
10-09-2023, 00:45:29,    295,    0.0,   18.3,   0.00,   0.00, 1013.8,    0.3, -999.0
10-09-2023, 00:45:39,    295,    0.0,   18.3,   0.00,   0.00, 1013.8,    0.2, -999.0
10-09-2023, 00:45:49,    295,    0.0,   18.3,   0.00,   0.00, 1013.8,    0.2, -999.0
10-09-2023, 00:46:00,    295,    0.0,   18.3,   0.00,   0.00, 1013.8,    0.4, -999.0
10-09-2023, 00:46:09,    294,    0.0,   18.3,   0.00,   0.00, 1013.7,    0.2, -999.0
10-09-2023, 00:46:19,    295,    0.0,   18.4,   0.00,   0.00, 1013.8,    0.2, -999.0
10-09-2023, 00:46:29,    295,    0.0,   18.3,   0.00,   0.00, 1013.8,    0.2, -999.0
10-09-2023, 00:46:39,    295,    0.0,   18.3,   0.00,   0.00, 1013.8,    0.5, -999.0
10-09-2023, 00:46:49,    295,    0.0,   18.3,   0.00,   0.00, 1013.8,    0.2, -999.0